Regional Weather Roundup
Issued by NWS Upton, NY

Current Version | Previous Version | Graphics & Text | Print | Product List | Glossary Off
Versions: 1 2 3 4 5 6 7 8 9 10 11 12 13 14 15 16 17 18 19 20 21 22 23 24 25 26 27 28 29 30 31 32 33 34 35 36 37 38 39 40 41 42 43 44 45 46 47 48 49 50

950
ASUS41 KOKX 121804
RWROKX

REGIONAL WEATHER ROUNDUP
NATIONAL WEATHER SERVICE NEW YORK NY
100 PM EST FRI FEB 12 2016

NOTE: "FAIR" INDICATES FEW OR NO CLOUDS BELOW 12,000 FEET WITH NO
SIGNIFICANT WEATHER AND/OR OBSTRUCTIONS TO VISIBILITY.

NYZ071-072-176-178-NJZ106-104-121900-
NEW YORK CITY METRO AREA


CITY           SKY/WX    TMP DP  RH WIND       PRES   REMARKS
CENTRAL PARK   SUNNY     25  -1  32 SW6       30.14F WCI  18
LAGUARDIA APRT PTSUNNY   26   0  32 S10       30.13F WCI  16
KENNEDY INTL   PTSUNNY   24   2  38 SW9       30.17F WCI  14
NEWARK/LIBERTY CLOUDY    26  -1  31 SW8       30.14F WCI  18
BRNX BOT. GARD   N/A     27   0  31 W5        30.14F WCI  21
TETERBORO      SUNNY     27  -1  30 VRB6G21   30.13F WCI  20
$$

NYZ177-179-078>081-121900-
LONG ISLAND NEW YORK

CITY           SKY/WX    TMP DP  RH WIND       PRES   REMARKS
FARMINGDALE    SUNNY     24   2  38 S9        30.14F WCI  14
ISLIP          PTSUNNY   23  -1  35 S8        30.13F WCI  14
SHIRLEY        SUNNY     23   1  38 S9        30.15F WCI  13
RIVERHEAD        N/A     32  -4  21 S7        30.11F WCI  26
WESTHAMPTON    SUNNY     21   3  45 SW9       30.16F WCI  11
EAST HAMPTON   FAIR      22   3  43 SW3       30.16F
MONTAUK POINT    N/A     24   8  50 VRB6      30.15F WCI  17
$$

NYZ052-065-067-121900-
HUDSON VALLEY

CITY           SKY/WX    TMP DP  RH WIND       PRES   REMARKS
WHITE PLAINS   SUNNY     23  -1  35 S9        30.09F WCI  13
NEWBURGH       PTSUNNY   23   5  46 SW6       30.09F WCI  16
MONTGOMERY     CLOUDY    26   2  35 S10       30.06F WCI  16
POUGHKEEPSIE   MOSUNNY   26   0  32 VRB5      30.09F WCI  20
ALBANY         CLOUDY    23   4  44 SE7       30.05F WCI  15
$$

NJZ001-105-106-008-010-013-015-019>022-104-121900-
NEW JERSEY

CITY           SKY/WX    TMP DP  RH WIND       PRES   REMARKS
NEWARK/LIBERTY CLOUDY    26  -1  31 SW8       30.14F WCI  18
TETERBORO      SUNNY     27  -1  30 VRB6G21   30.13F WCI  20
CALDWELL       SUNNY     25  -1  32 VRB6      30.12F WCI  18
MORRISTOWN     PTSUNNY   25   5  42 W13       30.13F WCI  13
SOMERVILLE     SUNNY     25   2  37 S7        30.12F WCI  17
SUSSEX         PTSUNNY   24   4  42 S9        30.07F WCI  14
ANDOVER          N/A     23   0  36 S6        30.07F WCI  16
TRENTON        PTSUNNY   24   3  40 SW13      30.14F WCI  12
MILLVILLE      CLOUDY    25   3  38 VRB7      30.19F WCI  17
ATLANTIC CITY  CLOUDY    26   1  34 S7        30.17F WCI  18
WRIGHTSTOWN    MOSUNNY   26   1  34 W7        30.13F WCI  18
TOMS RIVER     CLOUDY    28   1  31 SW8       30.16F WCI  20
BELMAR         CLOUDY    25   0  33 SW7       30.14F WCI  17
$$

PAZ047>061-062-071-121900-
EASTERN PENNSYLVANIA

CITY           SKY/WX    TMP DP  RH WIND       PRES   REMARKS
PHILADELPHIA   PTSUNNY   25   1  35 W10       30.18F WCI  15
ALLENTOWN      CLOUDY    22   5  48 SW13G18   30.12F WCI  10
SCRANTON       CLOUDY    18   4  54 SW10      30.03F WCI   6
$$

CTZ002-004>006-009-010-012-RIZ004-006-007-MAZ004-011-015-121900-
SOUTHERN NEW ENGLAND
 IN CT

CITY           SKY/WX    TMP DP  RH WIND       PRES   REMARKS
BRADLEY INTL   CLOUDY    22   1  40 SW9       30.09F WCI  12
HARTFORD       MOSUNNY   23   3  42 S12       30.12F WCI  12
DANBURY        MOSUNNY   21  -2  36 VRB5      30.10F WCI  15
WTRBRY/OXFORD  MOSUNNY   19  -2  38 SW6       30.09F WCI  11
BRIDGEPORT     SUNNY     25   2  37 SW10      30.14F WCI  15
MERIDEN        MOSUNNY   23  -2  33 S9        30.12F WCI  13
NEW HAVEN      SUNNY     22   2  42 S10G17    30.14F WCI  11
CHESTER        FAIR      23   1  39 S10       30.11F WCI  12
GROTON         SUNNY     22   9  57 SW9       30.14F WCI  12
WILLIMANTIC    SUNNY     22  -1  36 S5        30.12F WCI  16

 IN RI

CITY           SKY/WX    TMP DP  RH WIND       PRES   REMARKS
PROVIDENCE     PTSUNNY   21   2  43 VRB5      30.13F WCI  15
BLOCK ISLAND   MOSUNNY   25  10  54 W12       30.13F WCI  14
WESTERLY       SUNNY     24   6  46 W7        30.14F WCI  16

 IN MA

CITY           SKY/WX    TMP DP  RH WIND       PRES   REMARKS
BOSTON         PTSUNNY   21   1  41 SW8       30.11F WCI  11
WORCESTER      SUNNY     16   0  49 W12       30.03F WCI   3
WESTFIELD      CLOUDY    21   1  41 SW7       30.08F WCI  12
PROVINCETOWN   SUNNY     21   5  50 W10       30.14F WCI  10
NANTUCKET      SUNNY     21   7  54 SW12      30.15F WCI   9
$$

ANZ330-335-338-340-345-350-353-355-121900-
COASTAL MARINE OBSERVATIONS


STATION/POSITION TIME  SKY/WX   TEMP    WIND        PRES    VSBY  WAVE
                                AIR SEA DIR/SP/G                  HT/PER
                 (UTC)          (F)     (DEG/KT/KT) (MB)    (MI)  (FT/S)
NY HARB ENTRANCE 1650            21 42  240/  6/ 10 1022.8          1/10
4S FIRE IS       NOT AVBL
20S FIRE ISLAND  1650            22 41  280/  6/  8 1023.3          2/11
GREAT SOUTH BAY  NOT AVBL
23SW MTP         1750            22 45  240/  8/ 10 1021.3          3/ 6
HUDSON CANYON    1650            26 48              1023.0          4/ 5
KINGS POINT      1700            23 36  300/  1/  2 1021.7
EXECUTION ROCKS  NOT AVBL
CENTRAL LI SOUND NOT AVBL
EASTERN LI SOUND 1700            26 40  260/ 10/ 17   N/A
ROBBINS REEF     1700            22     260/  7/ 10 1021.5
$$


>>>>>>>>>>>>>>>>>>>>>>>>>>>> KEY <<<<<<<<<<<<<<<<<<<<<<<<<<<
>                                                          <
>     SKY/WX - SKY CONDITION/PRESENT WEATHER               <
>     TMP    - TEMPERATURE IN FAHRENHEIT                   <
>     DP     - DEWPOINT IN FAHRENHEIT                      <
>     RH     - RELATIVE HUMIDITY IN PERCENT                <
>     WIND   - DIRECTION AND SPEED IN MPH                  <
>     PRES   - MEAN SEA LEVEL PRESSURE IN INCHES OF HG     <
>     WCI    - WIND CHILL INDEX                            <
>     VSB    - VISIBILITY IN MILES                         <
>     HX     - HEAT INDEX                                  <
>     TC     - TEMPERATURE IN CELSIUS                      <
>     VRB    - VARIABLE WIND DIRECTION                     <
>                                                          <
>>>>>>>>>>>>>>>>>>>>>>>>>>>> KEY <<<<<<<<<<<<<<<<<<<<<<<<<<<






USA.gov is the U.S. government's official web portal to all federal, state and local government web resources and services.